Hourly Data

Hourly Data Report for July 28, 2014

All times are specified in Local Standard Time (LST). Add 1 hour to adjust for Daylight Saving Time where and when it is observed.

Metadata including Station Name, Province, Latitude, Longitude, Elevation, Climate ID, WMO ID, TC ID
MONTREAL MIRABEL INTL A
QUEBEC
Latitude: 45°40'50.000" N Longitude: 74°02'19.000" W Elevation: 82.30 m
Climate ID: 7034900 WMO ID: TC ID: YMX
Hourly Data Report for July 28, 2014
Temp Definition
°C

Dew Point Temp Definition
°C

Rel Hum Definition
%

Wind Dir Definition
10's deg
Wind Spd Definition
km/h

Visibility Definition
km

Stn Press Definition
kPa

Hmdx Definition

Wind Chill Definition

Weather Definition

00:00 Legend Double Dagger 17.6 16.8 95 6 5 40.2 99.53 LegendNANA
01:00 Legend Double Dagger 17.7 15.7 88 36 8 40.2 99.47 Mostly Cloudy
02:00 Legend Double Dagger 17.3 15.2 87 5 7 40.2 99.47 LegendNANA
03:00 Legend Double Dagger 16.8 15.0 89 3 6 40.2 99.45 LegendNANA
04:00 Legend Double Dagger 15.7 14.6 93 6 5 40.2 99.48 Mainly Clear
05:00 Legend Double Dagger 15.3 14.2 93 5 4 40.2 99.46 LegendNANA
06:00 Legend Double Dagger 15.4 14.1 92 5 5 40.2 99.50 LegendNANA
07:00 Legend Double Dagger 16.2 14.1 87 5 7 40.2 99.48 Cloudy
08:00 Legend Double Dagger 16.8 14.1 84 9 8 40.2 99.57 LegendNANA
09:00 Legend Double Dagger 17.4 14.2 81 5 5 40.2 99.55 LegendNANA
10:00 Legend Double Dagger 17.8 13.8 77 2 13 40.2 99.49 Cloudy
11:00 Legend Double Dagger 17.7 13.9 78 2 13 24.1 99.43 Rain Showers
12:00 Legend Double Dagger 16.5 14.4 87 5 7 24.1 99.41 Rain Showers
13:00 Legend Double Dagger 17.0 15.4 90 2 13 12.9 99.36 Rain Showers
14:00 Legend Double Dagger 16.7 14.9 89 36 17 24.1 99.34 Rain Showers
15:00 Legend Double Dagger 16.6 15.1 91 1 15 16.1 99.36 Rain Showers
16:00 Legend Double Dagger 16.5 14.9 90 36 16 24.1 99.40 Rain Showers
17:00 Legend Double Dagger 15.7 14.6 93 35 11 24.1 99.42 Rain Showers
18:00 Legend Double Dagger 15.4 14.1 92 35 14 24.1 99.43 Rain Showers
19:00 Legend Double Dagger 15.0 13.4 90 34 9 24.1 99.40 Rain Showers
20:00 Legend Double Dagger 14.8 14.0 95 29 5 40.2 99.45 LegendNANA
21:00 Legend Double Dagger 14.4 13.6 95 26 7 40.2 99.49 LegendNANA
22:00 Legend Double Dagger 14.5 13.6 94 27 8 40.2 99.51 Cloudy
23:00 Legend Double Dagger 14.1 12.8 92 28 11 40.2 99.55 LegendNANA

Notes on Data Quality.

Legend
  • M = Missing
  • E = Estimated
  • NA = Not Available
  • ‡ = Partner data that is not subject to review by the National Climate Archives